Weather in Rotava

Czech Republic     50°17′45″N   12°34′23″E
temp.,
°C
wind,
m/s
gust,
m/s
humid.,
%
clouds,
%
prec.,
mm/h
press.,
hPa
HPBL,
m
6 march, sat
sat601:00−3nnw11800 0.0 103424
04:00−3nnw11790 0.0 103323
07:00−4wnw11770 0.0 103424
10:00+1w11470 0.0 1034714
13:00+3w22361 0.0 10331199
16:00+3nw234215 0.0 10311077
19:00−2n226538 0.0 103124
22:00−3n11690 0.0 103122
7 march, sun
sun701:00−3nw11700 0.0 103122
04:00−3nw00710 0.0 102822
07:00−4wsw11720 0.0 102822
10:00+2w24484 0.0 1026653
13:00+5wnw34432 0.0 1024922
16:00+4nw34520 0.0 1021938
19:00−2n22840 0.0 102230
22:00−3nnw12910 0.0 102327
8 march, mon
mon801:00−4nnw23955 0.0 1023132
04:00−4nw129453 0.0 1022120
07:00−3nw129168 0.1 1023182
10:000nnw237093 0.1 1023690
13:00+2n236290 0.1 1023940
16:00+2nnw226498 0.1 1022953
19:00−2n228699 0.1 102228
22:00−2ne1185100 0.0 102222
9 march, tue
tue901:00−2ese1184100 0.0 102124
04:00−2e1186100 0.0 102035
07:00−1se1186100 0.0 102051
10:000ssw2288100 0.4 1021274
13:00+2sw2383100 0.8 1021528
16:00+2w3582100 0.4 1020597
19:00−1wnw249490 0.5 1021118
22:000wsw149580 0.1 1022263
10 march, wed
wed1001:00−2wsw129763 0.1 102269
04:00−3sw129725 0.0 102227
07:00−3sw129748 0.0 102364
10:00+2sw357471 0.0 1022528
13:00+6sw476286 0.0 1021946
16:00+5sw4864100 0.0 1019983
19:00+2sw2681100 0.0 1018187
22:00+1sw31383100 0.0 1018602